Aktualne dane pomiarowe

Uwaga, wersja testowa! Automatyczne pobieranie danych za pomocą narzędzi lub skryptów to umożliwiających jest zabronione.

Dane meteo z obszaru Polski uzyskane na podstawie depesz SYNOP pobieranych co godzinę z NWS. Najedź myszką na symbol przedstawiony w tabeli, aby uzyskać informacje co do jego znaczenia. Prosimy pamiętać, że to testowa wersja strony, która jeszcze nie jest ukończona. Stworzono również jest krótki FAQ dotyczący korzystania z tej podstrony Anomalie temperatury w chwili obecnej odniesione są do okresu referencyjnego 1951-2016. Okres ten będzie później zmieniony na 1981-2010. Kliknij ikonę aby pobrać plik CSV. Kliknij ikonę aby wygenerować mapę synoptyczną dla danego terminu.

Wybierz Datę:    

        

Sandomierz (12585)

Dane terminowe dla wybranej stacji. Kliknij datę, aby otrzymać dane z tego terminu dla wszystkich stacji.

TemperaturaZachmurzenieWiatrCiśnienieOpadyPogoda
 Data t td wb tx tn tg rh  Nt Nl Cl Cm Ch ws wd g1 g2 wx mslp ppp ch 24h 12h t ww ww w1 w2  
2019-07-05 23:00:00 14.7 9.1 11.2--- 6950.0--2wx--21012.8 986.9 0.4---------
2019-07-05 22:00:00 15.6 8.8 11.5--- 6445.0--2wx--21012.8 986.9 0.6---------
2019-07-05 21:00:00 15.7 8.9 11.6--- 6450.0--2wx--21012.5 986.7 0.6---------
2019-07-05 20:00:00 17.4 8.8 12.3--- 5750.0--2wx--21012.2 986.5 0.6---------
2019-07-05 19:00:00 18.2 8.5 12.5--- 5350.0--3wx--31011.9 986.3 0.4---------
2019-07-05 18:00:00 19.1 9.0 13.2 21.8 14.6- 5250.0--3wx-1031011.6 986.1 0.0--12------
2019-07-05 17:00:00 20.0 9.0 13.6--- 4940.0--5wx--51011.3 985.9 -0.2---------
2019-07-05 16:00:00 19.6 8.3 13.1--- 4850.0--4wx-1041011.4 985.9 -0.8---------
2019-07-05 15:00:00 19.7 7.4 12.8--- 4540.0--5wx101051011.6 986.1 -0.8---------
2019-07-05 14:00:00 20.1 7.5 13.0--- 4445.0--3wx---1011.5 986.1 -0.7---wx-----
2019-07-05 13:00:00 20.6 6.9 13.0--- 4130.0--4wx--41012.1 986.7 -0.5---wx-----
2019-07-05 12:00:00 20.8 7.1 13.1--- 4135.0--4wx--41012.3 986.9 -0.7- 0.06------
2019-07-05 11:00:00 21.5 8.4 14.0--- 4329.0--4wx--41012.1 986.8 -1.3---------
2019-07-05 10:00:00 20.1 8.1 13.2--- 4640.0--4wx---1012.7 987.2 -1.0---------
2019-07-05 09:00:00 19.1 8.4 12.9--- 5030.0--4wx--41013.2 987.6 -0.9---------
2019-07-05 08:00:00 17.8 8.4 12.3--- 5430.0--4wx--41013.8 988.1 -0.8---------
2019-07-05 07:00:00 16.1 8.1 11.4--- 5935.0--4wx--41014.0 988.2 -0.9---------
2019-07-05 06:00:00 14.6 9.0 11.2 19.8 10.3 10 6930.0--3wx--31014.5 988.5 -0.9- 0.012----- 10.9
2019-07-05 05:00:00 13.1 8.6 10.3--- 7445.0--2wx--21015.0 988.9 -0.8---------
2019-07-05 04:00:00 11.8 7.3 9.0--- 7435.0--3wx--31015.4 989.1 -1.3---------
2019-07-05 03:00:00 10.5 6.6 8.1--- 7740.0--2wx--21015.8 989.4 -1.6---------
2019-07-05 02:00:00 10.7 6.4 8.1--- 7545.0--2wx--21016.1 989.7 -1.7---------
2019-07-05 01:00:00 12.6 6.0 8.8--- 6445.0--3wx---1016.6 990.4 -1.3---------
2019-07-05 00:00:00 12.9 6.0 8.9--- 6345.0--2wx--21017.2 991.0 -0.9- 0.06------
2019-07-04 23:00:00 12.7 6.5 9.1--- 6645.0--2wx---1017.6 991.4 -0.9---------
2019-07-04 22:00:00 12.9 6.9 9.3--- 6715.0--2wx--21017.9 991.7 -0.5---------
2019-07-04 21:00:00 15.5 5.1 9.8--- 5050.0--2wx--21017.9 991.9 -0.3---------
2019-07-04 20:00:00 16.3 5.8 10.5--- 5050.0--2wx--21018.2 992.3 -0.1---------
2019-07-04 19:00:00 17.1 6.0 11.0--- 4820.0--2wx--21018.1 992.2 -0.5---------
2019-07-04 18:00:00 19.8 6.2 12.3 22.5 16.1- 4140.0--1wx-1011017.8 992.2 -0.8- 0.012------
2019-07-04 17:00:00 21.2 4.7 12.4--- 3435.0--3wx--31017.9 992.4 -1.1---------
2019-07-04 16:00:00 21.8 4.8 12.7--- 3340.0--3wx---1018.2 992.7 -1.3---------
2019-07-04 15:00:00 22.0 4.5 12.7--- 3235.0--4wx-1041018.4 993.0 -1.5---------
2019-07-04 14:00:00 22.0 5.8 13.1--- 3535.0--3wx-1031019.0 993.5 -1.2---------
2019-07-04 13:00:00 21.9 4.9 12.8--- 3335.0--5wx-1051019.5 994.0 -1.0---------
2019-07-04 12:00:00 20.9 4.9 12.3--- 3545.0--4wx-1041020.1 994.5 -0.5- 0.06------
2019-07-04 11:00:00 20.6 4.2 11.9--- 3430.0--5wx--51020.3 994.7 -0.6---------
2019-07-04 10:00:00 18.9 3.9 11.0--- 3745.0--3wx-931020.8 995.0 -0.6---------
2019-07-04 09:00:00 19.4 6.8 12.4--- 4445.0--3wx--31020.7 995.0 -0.5---------
2019-07-04 08:00:00 17.3 6.5 11.3--- 4940.0--1wx--11021.2 995.3 -0.1---------
2019-07-04 07:00:00 17.2 6.1 11.1--- 4830.0--2wx---1021.5 995.6 0.2---------
2019-07-04 06:00:00 16.5 7.2 11.2 18.4 10.8 9 5440.0--1wx--11021.5 995.5 0.4- 0.012----- 13.9
2019-07-04 05:00:00 13.6 7.6 10.0--- 6735.0--1wx--11021.7 995.4 0.5---------
2019-07-04 04:00:00 11.7 7.2 8.9--- 7440.0--1wx--11021.8 995.4 0.7---------
2019-07-04 03:00:00 11.1 6.8 8.5--- 7535.0--2wx--21021.6 995.1 0.4---------
2019-07-04 02:00:00 11.5 6.6 8.5--- 7250.0--2wx--21021.3 994.9 0.3---------
2019-07-04 01:00:00 12.0 5.8 8.4--- 6650.0--3wx--31021.1 994.7 0.2---------
2019-07-04 00:00:00 12.6 5.0 8.3--- 6050.0--3wx--31021.0 994.7 0.3- 0.06------
1.1 ms

 

Print Friendly, PDF & Email